FW6437 Weather Reports


Display with metric or nautical units.
time (UTC)temp
F
wind
direction
speed
MPH
gust
MPH
rain 1hr
in
rain 24hr
in
rain mn
in
humidity
%
barometer
mb
20260510124704 63 330 1.0 8.0 0.00 0.00 0.00 81 1016.3
20260510124203 63 336 4.0 8.0 0.00 0.00 0.00 81 1016.3
20260510123204 61 339 2.0 8.0 0.00 0.00 0.00 85 1016.2
20260510122704 61 337 2.0 7.0 0.00 0.00 0.00 87 1016.2
20260510122204 60 353 1.0 7.0 0.00 0.00 0.00 89 1016.2
20260510121704 59 296 2.0 6.0 0.00 0.00 0.00 92 1016.1
20260510121204 59 305 0.0 3.0 0.00 0.00 0.00 94 1016.0
20260510120704 58 326 1.0 5.0 0.00 0.00 0.00 95 1016.1
20260510120204 57 313 1.0 7.0 0.00 0.00 0.00 95 1016.1
20260510115704 57 307 2.0 7.0 0.00 0.00 0.00 96 1016.1
20260510115205 56 323 3.0 7.0 0.00 0.00 0.00 97 1016.1
20260510114705 56 302 1.0 6.0 0.00 0.00 0.00 97 1015.9
20260510114204 56 298 1.0 6.0 0.00 0.00 0.00 98 1015.9
20260510113706 55 351 2.0 6.0 0.00 0.00 0.00 99 1015.8
20260510113205 54 319 0.0 5.0 0.00 0.00 0.00 99 1015.8
20260510112205 53 92 0.0 0.0 0.00 0.00 0.00 99 1015.6
20260510111205 52 92 0.0 0.0 0.00 0.00 0.00 99 1015.5
20260510110705 51 92 0.0 0.0 0.00 0.00 0.00 99 1015.4
20260510110205 50 92 0.0 0.0 0.00 0.00 0.00 99 1015.2
20260510105705 50 92 0.0 0.0 0.00 0.00 0.00 99 1015.1
20260510105205 49 92 0.0 0.0 0.00 0.00 0.00 99 1015.0
20260510104705 49 92 0.0 0.0 0.00 0.00 0.00 99 1015.0
20260510104205 49 92 0.0 0.0 0.00 0.00 0.00 99 1014.9
20260510103706 49 92 0.0 0.0 0.00 0.00 0.00 99 1014.9
20260510103205 49 92 0.0 0.0 0.00 0.00 0.00 99 1014.8
20260510102705 49 92 0.0 0.0 0.00 0.00 0.00 99 1014.8
20260510102205 49 92 0.0 0.0 0.00 0.00 0.00 99 1014.7
20260510101205 49 92 0.0 0.0 0.00 0.00 0.00 99 1014.7
20260510100705 49 92 0.0 0.0 0.00 0.00 0.00 99 1014.7
20260510100205 49 92 0.0 0.0 0.00 0.00 0.00 99 1014.6
20260510095706 49 92 0.0 0.0 0.00 0.00 0.00 99 1014.6
20260510094205 49 92 0.0 0.0 0.00 0.00 0.00 99 1014.5
20260510093706 49 92 0.0 0.0 0.00 0.00 0.00 99 1014.4
20260510093205 49 92 0.0 0.0 0.00 0.00 0.00 99 1014.3
20260510092705 49 92 0.0 0.0 0.00 0.00 0.00 99 1014.3
20260510092206 49 92 0.0 0.0 0.00 0.00 0.00 99 1014.2
20260510091705 49 92 0.0 0.0 0.00 0.00 0.00 99 1014.2
20260510091206 49 92 0.0 0.0 0.00 0.00 0.00 99 1014.0
20260510090706 49 92 0.0 0.0 0.00 0.00 0.00 99 1013.9
20260510090205 48 92 0.0 0.0 0.00 0.00 0.00 99 1013.9
20260510085705 49 92 0.0 0.0 0.00 0.00 0.00 99 1014.0
20260510085205 49 92 0.0 0.0 0.00 0.00 0.00 99 1013.9
20260510084704 49 92 0.0 0.0 0.00 0.00 0.00 99 1013.9
20260510084205 49 92 0.0 0.0 0.00 0.00 0.00 99 1013.9
20260510083205 49 92 0.0 0.0 0.00 0.00 0.00 98 1014.0
20260510082705 49 92 0.0 0.0 0.00 0.00 0.00 98 1014.0
20260510082205 49 92 0.0 2.0 0.00 0.00 0.00 98 1013.9
20260510081705 49 92 0.0 2.0 0.00 0.00 0.00 97 1013.9
20260510081204 49 113 0.0 2.0 0.00 0.00 0.00 97 1013.9
20260510080705 49 121 0.0 0.0 0.00 0.00 0.00 96 1013.7
20260510080205 50 121 0.0 0.0 0.00 0.00 0.00 96 1013.7
20260510075706 50 121 0.0 0.0 0.00 0.00 0.00 96 1013.6
20260510075205 50 121 0.0 0.0 0.00 0.00 0.00 96 1013.5
20260510074705 50 121 0.0 0.0 0.00 0.00 0.00 95 1013.4
20260510074205 50 121 0.0 0.0 0.00 0.00 0.00 95 1013.4
20260510073705 51 121 0.0 0.0 0.00 0.00 0.00 95 1013.4
20260510073205 51 121 0.0 0.0 0.00 0.00 0.00 94 1013.3
20260510072705 51 121 0.0 0.0 0.00 0.00 0.00 94 1013.3
20260510072205 50 121 0.0 0.0 0.00 0.00 0.00 94 1013.3
20260510071705 51 121 0.0 0.0 0.00 0.00 0.00 91 1013.3
20260510071205 52 121 0.0 0.0 0.00 0.00 0.00 89 1013.3
20260510070705 53 121 0.0 0.0 0.00 0.00 0.00 88 1013.2
20260510065705 54 121 0.0 0.0 0.00 0.00 0.00 87 1013.2
20260510065205 54 121 0.0 0.0 0.00 0.00 0.00 87 1013.2
20260510064706 53 121 0.0 0.0 0.00 0.00 0.00 87 1013.2
20260510064205 52 121 0.0 0.0 0.00 0.00 0.00 87 1013.2
20260510063705 53 121 0.0 0.0 0.00 0.00 0.00 85 1013.3
20260510063205 54 121 0.0 0.0 0.00 0.00 0.00 82 1013.3
20260510062705 55 121 0.0 0.0 0.00 0.00 0.00 82 1013.4
20260510062205 55 121 0.0 0.0 0.00 0.00 0.00 80 1013.4
20260510061705 55 121 0.0 0.0 0.00 0.00 0.00 80 1013.4
20260510061205 55 121 0.0 0.0 0.00 0.00 0.00 80 1013.3
20260510060705 55 121 0.0 0.0 0.00 0.00 0.00 80 1013.3
20260510060205 55 121 0.0 0.0 0.00 0.00 0.00 81 1013.3
20260510055705 55 121 0.0 0.0 0.00 0.00 0.00 81 1013.4
20260510055205 54 121 0.0 0.0 0.00 0.00 0.00 81 1013.3
20260510054705 54 121 0.0 0.0 0.00 0.00 0.00 82 1013.3
20260510054205 54 121 0.0 0.0 0.00 0.00 0.00 81 1013.3
20260510053705 54 121 0.0 0.0 0.00 0.00 0.00 82 1013.3
20260510053205 54 121 0.0 0.0 0.00 0.00 0.00 82 1013.3
20260510052705 54 121 0.0 0.0 0.00 0.00 0.00 81 1013.3
20260510051705 54 121 0.0 0.0 0.00 0.00 0.00 80 1013.2
20260510051205 54 121 0.0 2.0 0.00 0.00 0.00 80 1013.2
20260510050705 54 121 0.0 2.0 0.00 0.00 0.00 79 1013.3
20260510045705 55 167 0.0 0.0 0.00 0.00 0.00 78 1013.4
20260510045205 55 167 0.0 0.0 0.00 0.00 0.00 78 1013.4
20260510044705 54 167 0.0 0.0 0.00 0.00 0.00 79 1013.3
20260510044205 55 167 0.0 0.0 0.00 0.00 0.00 78 1013.2
20260510043705 55 167 0.0 0.0 0.00 0.00 0.00 79 1013.3
20260510043205 55 167 0.0 0.0 0.00 0.00 0.00 78 1013.3
20260510042705 55 167 0.0 3.0 0.00 0.00 0.00 78 1013.3
20260510042205 55 167 0.0 6.0 0.00 0.00 0.00 78 1013.2
20260510041704 55 166 3.0 6.0 0.00 0.00 0.00 77 1013.2
20260510041207 56 169 0.0 0.0 0.00 0.00 0.00 75 1013.1
20260510040706 56 169 0.0 0.0 0.00 0.00 0.00 74 1013.1
20260510040205 56 169 0.0 0.0 0.00 0.00 0.00 75 1013.1
20260510035205 56 169 0.0 0.0 0.00 0.00 0.00 72 1013.1
20260510034205 58 169 0.0 0.0 0.00 0.00 0.00 67 1013.0
20260510032705 58 169 0.0 0.0 0.00 0.00 0.00 69 1013.0
20260510031705 58 169 0.0 0.0 0.00 0.00 0.00 68 1013.0
20260510031205 59 169 0.0 0.0 0.00 0.00 0.00 66 1012.8
20260510030705 60 169 0.0 0.0 0.00 0.00 0.00 63 1012.8
20260510030205 60 169 0.0 0.0 0.00 0.00 0.00 61 1012.8
20260510024704 60 169 0.0 0.0 0.00 0.00 0.00 61 1012.8
20260510024205 61 169 0.0 0.0 0.00 0.00 0.00 60 1012.7
20260510023705 62 169 0.0 6.0 0.00 0.00 0.00 58 1012.7
20260510023205 62 169 1.0 6.0 0.00 0.00 0.00 55 1012.7
20260510022705 63 196 5.0 6.0 0.00 0.00 0.00 55 1012.6
20260510022205 63 250 0.0 5.0 0.00 0.00 0.00 53 1012.5
20260510021705 63 250 0.0 5.0 0.00 0.00 0.00 51 1012.3
20260510020705 61 318 1.0 3.0 0.00 0.00 0.00 56 1012.3
20260510020205 61 268 0.0 0.0 0.00 0.00 0.00 58 1012.2
20260510015705 61 268 0.0 0.0 0.00 0.00 0.00 59 1012.2
20260510014705 62 268 0.0 0.0 0.00 0.00 0.00 59 1011.9
20260510013205 62 268 0.0 0.0 0.00 0.00 0.00 57 1011.5
20260510011706 64 268 0.0 0.0 0.00 0.00 0.00 54 1011.2
20260510011205 64 268 0.0 0.0 0.00 0.00 0.00 52 1011.1
20260510010705 65 268 0.0 0.0 0.00 0.00 0.00 50 1011.1
20260510010205 66 268 0.0 0.0 0.00 0.00 0.00 47 1011.0
20260510005705 67 268 0.0 0.0 0.00 0.00 0.00 47 1011.0
20260510005205 68 268 0.0 0.0 0.00 0.00 0.00 43 1010.8
20260510004706 68 268 0.0 3.0 0.00 0.00 0.00 41 1010.8
20260510004205 68 268 0.0 3.0 0.00 0.00 0.00 40 1010.8
20260510003705 69 288 1.0 6.0 0.00 0.00 0.00 40 1010.8
20260510003205 69 325 1.0 6.0 0.00 0.00 0.00 39 1010.8
20260510002705 70 292 2.0 7.0 0.00 0.00 0.00 39 1010.7
20260510002205 70 310 5.0 8.0 0.00 0.00 0.00 38 1010.8
20260510001705 70 303 4.0 8.0 0.00 0.00 0.00 39 1010.6
20260510001205 71 302 0.0 3.0 0.00 0.00 0.00 38 1010.5
20260510000705 72 299 1.0 7.0 0.00 0.00 0.00 37 1010.5
20260509235705 72 287 6.0 9.0 0.00 0.00 0.00 34 1010.2
20260509235205 73 288 3.0 9.0 0.00 0.00 0.00 34 1010.2
20260509234205 74 310 5.0 10.0 0.00 0.00 0.00 34 1010.0
20260509233705 74 290 5.0 14.0 0.00 0.00 0.00 33 1009.9
20260509232704 74 331 6.0 13.0 0.00 0.00 0.00 33 1009.9
20260509232205 75 314 6.0 13.0 0.00 0.00 0.00 33 1009.9
20260509231705 75 310 6.0 12.0 0.00 0.00 0.00 32 1009.8
20260509231205 75 318 5.0 14.0 0.00 0.00 0.00 31 1009.7
20260509230705 74 317 9.0 14.0 0.00 0.00 0.00 31 1009.6
20260509230205 73 309 7.0 14.0 0.00 0.00 0.00 33 1009.6
20260509224705 73 331 9.0 14.0 0.00 0.00 0.00 33 1009.6
20260509224205 74 290 6.0 14.0 0.00 0.00 0.00 33 1009.7
20260509223705 74 300 8.0 14.0 0.00 0.00 0.00 32 1009.6
20260509222705 74 314 6.0 14.0 0.00 0.00 0.00 34 1009.6
20260509222205 75 310 6.0 16.0 0.00 0.00 0.00 32 1009.6
20260509221704 74 290 6.0 16.0 0.00 0.00 0.00 33 1009.6
20260509220705 74 291 4.0 13.0 0.00 0.00 0.00 34 1009.5
20260509215705 74 289 6.0 13.0 0.00 0.00 0.00 33 1009.5
20260509215205 74 301 7.0 13.0 0.00 0.00 0.00 33 1009.4
20260509214205 75 258 4.0 15.0 0.00 0.00 0.00 31 1009.4
20260509213705 75 283 6.0 15.0 0.00 0.00 0.00 32 1009.4
20260509213205 75 287 5.0 14.0 0.00 0.00 0.00 33 1009.4
20260509212705 75 302 5.0 14.0 0.00 0.00 0.00 31 1009.3
20260509212205 75 319 6.0 15.0 0.00 0.00 0.00 33 1009.3
20260509211705 75 306 8.0 15.0 0.00 0.00 0.00 31 1009.3
20260509211205 75 287 8.0 15.0 0.00 0.00 0.00 31 1009.2
20260509210705 75 280 7.0 12.0 0.00 0.00 0.00 32 1009.0
20260509205705 75 301 6.0 14.0 0.00 0.00 0.00 31 1009.0
20260509204705 77 238 5.0 15.0 0.00 0.00 0.00 31 1008.9
20260509204205 76 273 3.0 10.0 0.00 0.00 0.00 31 1009.0
20260509203705 76 249 4.0 22.0 0.00 0.00 0.00 31 1009.0
20260509202705 79 269 6.0 15.0 0.00 0.00 0.00 31 1009.0
20260509202205 76 290 7.0 15.0 0.00 0.00 0.00 28 1009.0
20260509201705 75 254 4.0 10.0 0.00 0.00 0.00 31 1009.0
20260509201205 76 222 1.0 12.0 0.00 0.00 0.00 38 1009.0
20260509200705 77 259 5.0 12.0 0.00 0.00 0.00 39 1009.0
20260509195705 77 232 3.0 12.0 0.00 0.00 0.00 37 1009.0
20260509195205 76 281 4.0 12.0 0.00 0.00 0.00 35 1009.0
20260509193706 74 110 0.0 7.0 0.00 0.00 0.00 43 1009.2
20260509193205 74 188 2.0 7.0 0.00 0.00 0.00 42 1009.2
20260509191205 74 240 5.0 10.0 0.00 0.00 0.00 42 1009.5
20260509190705 74 219 1.0 10.0 0.00 0.00 0.00 42 1009.5
20260509190206 75 233 3.0 10.0 0.00 0.00 0.00 40 1009.5
20260509185705 75 157 3.0 10.0 0.00 0.00 0.00 47 1009.5
20260509185205 73 143 5.0 10.0 0.00 0.00 0.00 46 1009.6
20260509184705 73 206 3.0 10.0 0.00 0.00 0.00 45 1009.7
20260509183705 74 147 2.0 9.0 0.00 0.00 0.00 46 1009.7
20260509183205 74 166 4.0 10.0 0.00 0.00 0.00 45 1009.8
20260509181205 73 246 2.0 7.0 0.00 0.00 0.00 44 1010.1
20260509180705 72 246 0.0 8.0 0.00 0.00 0.00 45 1010.2
20260509174205 72 180 2.0 7.0 0.00 0.00 0.00 48 1010.4
20260509173705 72 142 2.0 7.0 0.00 0.00 0.00 49 1010.5
20260509173206 72 215 1.0 7.0 0.00 0.00 0.00 47 1010.5
20260509172705 71 152 0.0 8.0 0.00 0.00 0.00 52 1010.6
20260509172205 70 209 0.0 13.0 0.00 0.00 0.00 53 1010.7
20260509171705 69 250 5.0 13.0 0.00 0.00 0.00 52 1010.7
20260509171205 69 215 0.0 7.0 0.00 0.00 0.00 52 1010.8
20260509170705 69 215 1.0 10.0 0.00 0.00 0.00 52 1010.9
20260509170205 68 324 2.0 20.0 0.00 0.00 0.00 54 1010.9
20260509165705 69 297 10.0 20.0 0.00 0.00 0.00 53 1011.0
20260509165205 70 173 2.0 6.0 0.00 0.00 0.00 51 1011.0
20260509164705 70 323 1.0 8.0 0.00 0.00 0.00 51 1011.1
20260509163704 71 208 1.0 8.0 0.00 0.00 0.00 51 1011.2
20260509162705 71 145 3.0 12.0 0.00 0.00 0.00 50 1011.2
20260509162205 71 221 4.0 12.0 0.00 0.00 0.00 50 1011.3
20260509161704 72 172 4.0 12.0 0.00 0.00 0.00 51 1011.2
20260509160706 72 180 3.0 10.0 0.00 0.00 0.00 50 1011.1
20260509160205 71 201 0.0 7.0 0.00 0.00 0.00 51 1011.1
20260509155705 70 103 1.0 7.0 0.00 0.00 0.00 52 1011.2
20260509154205 69 154 3.0 6.0 0.00 0.00 0.00 56 1011.2
20260509153705 68 161 1.0 8.0 0.00 0.00 0.00 56 1011.5
20260509153205 68 191 4.0 8.0 0.00 0.00 0.00 55 1011.7
20260509152705 69 167 2.0 7.0 0.00 0.00 0.00 54 1011.9
20260509152205 68 80 0.0 3.0 0.00 0.01 0.00 55 1011.8
20260509151705 68 152 1.0 7.0 0.00 0.01 0.00 55 1011.8
20260509151205 67 354 0.0 10.0 0.00 0.01 0.00 54 1011.8
20260509150705 67 81 1.0 10.0 0.00 0.01 0.00 58 1011.5
20260509150205 68 187 2.0 10.0 0.00 0.01 0.00 57 1011.3
20260509145705 67 115 6.0 8.0 0.00 0.01 0.00 55 1011.5
20260509145204 68 175 2.0 8.0 0.00 0.01 0.00 55 1011.8
20260509144705 68 128 2.0 8.0 0.00 0.01 0.00 56 1011.8
20260509144205 67 144 2.0 7.0 0.00 0.01 0.00 55 1011.9
20260509143705 67 101 2.0 6.0 0.00 0.01 0.00 56 1012.0
20260509142705 65 150 3.0 8.0 0.00 0.01 0.00 56 1012.2
20260509142204 66 141 2.0 7.0 0.00 0.01 0.00 57 1012.1
20260509141705 64 198 0.0 6.0 0.00 0.01 0.00 60 1012.2
20260509141205 64 138 0.0 5.0 0.00 0.01 0.00 56 1012.2
20260509140705 63 130 0.0 3.0 0.00 0.01 0.00 59 1012.3
20260509140205 63 186 0.0 3.0 0.00 0.01 0.00 59 1012.3
20260509135705 63 215 1.0 3.0 0.00 0.01 0.00 60 1012.3
20260509135205 62 86 0.0 0.0 0.00 0.01 0.00 60 1012.3
20260509134705 61 86 0.0 3.0 0.00 0.01 0.00 63 1011.9
20260509133705 60 168 0.0 0.0 0.00 0.01 0.00 65 1012.1
20260509133204 59 168 0.0 0.0 0.00 0.01 0.00 67 1012.3
20260509132705 58 168 0.0 2.0 0.00 0.01 0.00 66 1012.6
20260509132205 57 168 0.0 2.0 0.00 0.01 0.00 66 1012.9
20260509131205 55 215 0.0 3.0 0.00 0.01 0.00 68 1013.1
20260509130205 55 296 1.0 5.0 0.00 0.01 0.00 72 1013.2
20260509125705 55 260 1.0 3.0 0.00 0.01 0.00 70 1013.1